Upstream stations:
Downstream station:
SHEF ID: MARK1 COTTONWOOD R AT MARION, KS
STATION TYPE:
Regulating: Stage = 16.00, Flow = 4479
PRECIP STAGE RIV-FLOW BAT-LOAD
in ft cfs volt
Ccp-Rev Ccp-Rev Ccp-Rev Ccp-Rev
(US/Central)
09/02 00:00 0.00 4.46 3 12.65
09/02 01:00 0.00 4.45 3 12.65
09/02 02:00 0.00 4.45 3 12.60
09/02 03:00 0.00 4.45 3 12.60
09/02 04:00 0.00 4.46 3 12.60
09/02 05:00 0.00 4.46 3 12.60
09/02 06:00 0.00 4.46 3 12.54
09/02 07:00 0.00 4.46 3 12.54
09/02 08:00 0.00 4.46 3 12.54
09/02 09:00 0.00 4.46 3 13.07
09/02 10:00 0.00 4.46 3 13.07
09/02 11:00 0.00 4.47 3 13.36
09/02 12:00 0.00 4.47 3 13.71
09/02 13:00 0.00 4.46 3 13.94
09/02 14:00 0.00 4.47 3 13.94
09/02 15:00 0.00 4.47 3 13.77
09/02 16:00 0.00 4.47 3 13.77
09/02 17:00 0.00 4.47 3 13.65
09/02 18:00 0.00 4.47 3 13.18
09/02 19:00 0.67 4.52 3 12.71
09/02 20:00 0.00 4.51 3 12.71
09/02 21:00 0.00 4.50 3 12.65
09/02 22:00 0.24 4.53 3 12.65
09/02 23:00 0.04 4.52 3 12.65